TimeCDT,TemperatureF,Dew PointF,Humidity,Sea Level PressureIn,VisibilityMPH,Wind Direction,Wind SpeedMPH,Gust SpeedMPH,PrecipitationIn,Events,Conditions,WindDirDegrees,DateUTC
12:53 AM,80.1,68.0,67,29.89,10.0,SSW,11.5,-,N/A,,Clear,210,2013-07-19 05:53:00
1:53 AM,79.0,68.0,69,29.88,10.0,SW,10.4,-,N/A,,Clear,220,2013-07-19 06:53:00
2:53 AM,78.1,68.0,71,29.87,10.0,SW,10.4,-,N/A,,Clear,220,2013-07-19 07:53:00
3:53 AM,77.0,68.0,74,29.85,10.0,SW,9.2,-,N/A,,Scattered Clouds,220,2013-07-19 08:53:00
4:53 AM,75.9,68.0,76,29.84,10.0,SW,9.2,-,N/A,,Scattered Clouds,220,2013-07-19 09:53:00
5:53 AM,75.9,66.9,74,29.85,10.0,WSW,9.2,-,N/A,,Clear,240,2013-07-19 10:53:00
6:53 AM,77.0,68.0,74,29.85,10.0,SW,8.1,-,N/A,,Scattered Clouds,230,2013-07-19 11:53:00
7:53 AM,79.0,68.0,69,29.87,10.0,West,6.9,-,N/A,,Mostly Cloudy,280,2013-07-19 12:53:00
8:14 AM,78.8,69.8,74,29.91,8.0,North,3.5,-,0.00,Rain-Thunderstorm,Light Thunderstorms and Rain,360,2013-07-19 13:14:00
8:33 AM,77.0,71.6,83,29.92,8.0,WNW,3.5,-,0.01,Rain,Light Rain,300,2013-07-19 13:33:00
8:53 AM,77.0,72.0,84,29.89,10.0,SSW,6.9,-,0.01,Rain,Light Rain,200,2013-07-19 13:53:00
9:15 AM,75.2,71.6,89,29.91,10.0,SSW,5.8,-,0.00,Thunderstorm,Thunderstorm,210,2013-07-19 14:15:00
9:30 AM,75.2,71.6,89,29.91,10.0,SW,10.4,-,0.00,,Partly Cloudy,220,2013-07-19 14:30:00
9:53 AM,75.9,72.0,87,29.88,10.0,WSW,6.9,-,0.01,,Mostly Cloudy,250,2013-07-19 14:53:00
10:53 AM,81.0,72.0,74,29.86,10.0,SW,10.4,-,0.00,,Clear,230,2013-07-19 15:53:00
11:53 AM,86.0,71.1,61,29.85,10.0,West,13.8,-,N/A,,Clear,270,2013-07-19 16:53:00
12:53 PM,86.0,73.9,67,29.84,10.0,WNW,10.4,-,N/A,,Partly Cloudy,300,2013-07-19 17:53:00
1:53 PM,89.1,73.0,59,29.84,10.0,WSW,10.4,-,N/A,,Scattered Clouds,240,2013-07-19 18:53:00
2:53 PM,91.0,72.0,53,29.83,10.0,West,11.5,-,N/A,,Partly Cloudy,260,2013-07-19 19:53:00
3:53 PM,91.9,66.9,44,29.82,10.0,West,10.4,18.4,N/A,,Partly Cloudy,280,2013-07-19 20:53:00
4:53 PM,91.0,71.1,52,29.81,10.0,WNW,6.9,-,N/A,,Clear,290,2013-07-19 21:53:00
5:45 PM,89.6,69.8,52,29.84,10.0,North,13.8,-,N/A,,Partly Cloudy,360,2013-07-19 22:45:00
5:53 PM,89.1,69.1,52,29.81,10.0,North,15.0,-,N/A,,Clear,350,2013-07-19 22:53:00
6:53 PM,86.0,66.9,53,29.81,10.0,North,10.4,-,N/A,,Clear,350,2013-07-19 23:53:00
7:53 PM,82.9,68.0,60,29.83,10.0,North,8.1,-,N/A,,Clear,350,2013-07-20 00:53:00
8:53 PM,75.0,66.0,73,29.84,10.0,North,8.1,-,N/A,,Clear,350,2013-07-20 01:53:00
9:53 PM,72.0,64.9,78,29.87,10.0,North,6.9,-,N/A,,Clear,360,2013-07-20 02:53:00
10:53 PM,70.0,64.0,81,29.88,10.0,NNW,5.8,-,N/A,,Clear,330,2013-07-20 03:53:00
11:53 PM,66.9,64.0,90,29.90,10.0,NW,3.5,-,N/A,,Clear,320,2013-07-20 04:53:00